Location: Newark
(49.9828°N, 3.1606°E)
Time: 11:20:27
(UTC+00:00)

Envisat - Pass Details

Date: 27 January 2020
Orbit: 764 x 766 km, 98.1° (Epoch: 25 February)

Event Time Altitude Azimuth Distance (km) Brightness Sun altitude
Rises 06:35:10 0° 14° (NNE) 3,246 6.2 -8.7°
Reaches altitude 10° 06:37:29 10° 16° (NNE) 2,315 5.5 -8.3°
Maximum altitude 06:42:36 80° 104° (ESE) 783 3.2 -7.5°
Drops below altitude 10° 06:47:41 10° 192° (SSW) 2,296 5.6 -6.8°
Sets 06:49:58 0° 193° (SSW) 3,218 6.3 -6.4°
